Temp
-12 -12 -13 -12 -12 -11 -12 -12 -12 -12 -9 -9 -10 -10 -10 -9 -9 -10 -10 -11 -11 -12 -11 -12 -11 -11 -12 -12 -12 -12 -12 -11 -12 -12 -12 -12 -12 -12 -12 -12 -12 -12 -12 -12 -13 -13 -13 -13 -13
-12 -13 -13 -12 -12 -13 -12 -12 -13 -10 -11 -10 -10 -10 -10 -10 -11 -10 -11 -11 -11 -12 -12 -13 -12 -12 -12 -12 -12 -12 -12 -12 -13 -13 -12 -12 -12 -12 -12 -12 -12 -12 -12 -13 -13 -13 -13 -13 -13
-13 -13 -13 -13 -13 -14 -12 -13 -12 -11 -11 -11 -10 -10 -10 -11 -11 -11 -11 -12 -12 -12 -11 -12 -12 -12 -12 -12 -12 -13 -12 -13 -13 -12 -12 -12 -12 -12 -12 -12 -12 -12 -13 -13 -13 -13 -13 -13 -13
-14 -14 -14 -13 -14 -14 -14 -13 -11 -12 -11 -10 -11 -10 -11 -11 -11 -12 -12 -12 -11 -11 -11 -11 -11 -12 -12 -12 -13 -13 -13 -13 -13 -12 -12 -12 -12 -12 -12 -12 -12 -12 -13 -13 -13 -13 -13 -13 -13
-15 -14 -14 -14 -14 -14 -14 -13 -11 -11 -11 -11 -11 -11 -11 -11 -10 -11 -11 -11 -11 -11 -11 -11 -11 -11 -13 -13 -12 -14 -14 -14 -13 -13 -12 -12 -12 -12 -12 -12 -12 -12 -13 -13 -13 -13 -13 -13 -13
-15 -14 -14 -14 -14 -14 -14 -13 -14 -10 -12 -11 -12 -11 -11 -11 -11 -11 -10 -10 -10 -10 -10 -11 -12 -13 -13 -12 -14 -15 -14 -14 -13 -13 -12 -12 -12 -12 -12 -12 -13 -13 -13 -13 -13 -13 -14 -14 -13
-15 -15 -14 -14 -14 -14 -14 -14 -12 -13 -12 -13 -12 -12 -12 -11 -10 -10 -10 -10 -10 -10 -11 -12 -13 -13 -13 -14 -15 -14 -14 -14 -13 -13 -12 -12 -12 -12 -12 -12 -12 -13 -13 -13 -13 -14 -13 -14 -14
-15 -15 -15 -15 -14 -14 -14 -13 -13 -13 -12 -12 -12 -12 -12 -11 -11 -11 -11 -10 -10 -10 -12 -13 -14 -13 -15 -15 -15 -14 -14 -14 -13 -13 -13 -13 -13 -12 -12 -13 -13 -13 -13 -13 -14 -14 -14 -13 -14
-15 -14 -15 -14 -14 -13 -13 -13 -13 -12 -12 -13 -12 -12 -12 -12 -12 -12 -11 -11 -11 -11 -13 -14 -14 -15 -15 -15 -15 -14 -14 -14 -14 -14 -14 -14 -14 -13 -13 -14 -14 -14 -14 -14 -14 -14 -14 -14 -14
-15 -14 -15 -14 -13 -13 -13 -13 -14 -13 -13 -13 -12 -13 -13 -12 -12 -12 -13 -13 -12 -12 -14 -15 -15 -15 -14 -14 -14 -15 -15 -14 -14 -14 -14 -14 -14 -14 -15 -15 -15 -15 -15 -15 -14 -14 -14 -15 -14
-16 -15 -14 -14 -13 -14 -14 -14 -14 -13 -13 -14 -14 -14 -15 -14 -14 -14 -14 -14 -14 -14 -14 -14 -14 -14 -15 -15 -15 -15 -15 -14 -14 -14 -14 -15 -15 -16 -16 -16 -15 -15 -16 -15 -15 -15 -15 -15 -15
-16 -15 -14 -13 -13 -14 -14 -15 -14 -13 -13 -16 -15 -15 -15 -14 -14 -14 -14 -14 -14 -14 -14 -15 -15 -15 -15 -15 -14 -14 -14 -14 -14 -14 -15 -15 -16 -17 -17 -16 -16 -15 -16 -16 -16 -16 -15 -15 -15
-16 -15 -15 -15 -14 -15 -14 -14 -15 -15 -15 -15 -15 -15 -15 -15 -15 -15 -15 -15 -15 -15 -15 -15 -15 -15 -15 -15 -15 -15 -14 -14 -15 -15 -16 -16 -17 -17 -17 -16 -16 -16 -16 -16 -15 -16 -15 -15 -16
-16 -15 -15 -15 -15 -16 -15 -16 -15 -15 -15 -15 -15 -15 -15 -15 -15 -15 -15 -15 -15 -15 -15 -15 -15 -15 -15 -15 -15 -15 -15 -15 -16 -16 -16 -17 -16 -16 -16 -16 -16 -16 -16 -16 -16 -15 -16 -16 -16
-16 -16 -16 -15 -16 -16 -16 -15 -15 -15 -15 -15 -15 -15 -15 -15 -15 -15 -15 -15 -15 -15 -15 -15 -15 -15 -15 -15 -15 -15 -15 -15 -16 -16 -17 -16 -16 -16 -16 -16 -16 -16 -17 -16 -17 -16 -17 -17 -17
-17 -17 -16 -16 -16 -16 -16 -16 -15 -15 -15 -15 -15 -15 -15 -15 -15 -15 -15 -15 -15 -15 -15 -15 -16 -15 -15 -15 -15 -14 -14 -15 -16 -16 -16 -16 -16 -17 -17 -17 -17 -17 -17 -17 -17 -17 -17 -18 -18
-17 -16 -16 -17 -16 -16 -16 -16 -16 -16 -16 -15 -15 -15 -15 -15 -15 -15 -15 -15 -15 -15 -16 -16 -16 -15 -15 -15 -16 -15 -15 -15 -15 -15 -15 -16 -16 -16 -17 -17 -18 -18 -18 -18 -18 -18 -18 -18 -18
-16 -16 -16 -16 -16 -16 -16 -16 -16 -16 -16 -16 -16 -16 -16 -15 -15 -15 -15 -15 -16 -16 -15 -15 -15 -16 -16 -16 -16 -15 -15 -15 -15 -15 -16 -16 -17 -17 -17 -18 -18 -18 -17 -17 -17 -17 -18 -18 -17
-16 -16 -16 -16 -16 -17 -16 -16 -16 -16 -16 -16 -16 -16 -16 -16 -15 -15 -15 -15 -16 -16 -16 -16 -16 -16 -16 -15 -15 -15 -15 -15 -15 -16 -16 -16 -16 -16 -17 -17 -17 -17 -18 -18 -18 -19 -19 -19 -19
-16 -16 -16 -16 -16 -16 -16 -16 -16 -16 -16 -16 -16 -16 -16 -16 -16 -16 -16 -16 -16 -16 -16 -16 -16 -15 -16 -16 -16 -15 -15 -16 -16 -16 -16 -16 -17 -17 -18 -18 -19 -19 -19 -19 -19 -19 -19 -19 -19
-16 -16 -16 -16 -16 -16 -16 -16 -15 -15 -16 -16 -16 -16 -16 -16 -16 -16 -16 -16 -16 -16 -16 -16 -16 -16 -16 -15 -15 -15 -15 -16 -16 -15 -15 -16 -17 -18 -18 -18 -19 -19 -19 -19 -19 -19 -19 -19 -19
-16 -16 -16 -16 -16 -16 -15 -15 -16 -16 -15 -15 -16 -16 -16 -16 -16 -16 -16 -16 -16 -16 -16 -15 -15 -15 -15 -15 -15 -15 -16 -15 -15 -16 -16 -17 -17 -17 -18 -18 -19 -19 -19 -20 -19 -19 -19 -19 -19
-16 -17 -16 -16 -16 -15 -15 -15 -16 -16 -15 -15 -15 -16 -16 -16 -16 -16 -16 -16 -16 -16 -15 -15 -15 -15 -15 -15 -15 -15 -15 -15 -15 -16 -17 -17 -17 -18 -18 -18 -19 -19 -20 -20 -19 -19 -19 -19 -19
-16 -16 -17 -16 -16 -16 -15 -15 -15 -15 -15 -15 -15 -15 -15 -16 -16 -16 -16 -16 -15 -15 -15 -15 -15 -15 -15 -15 -15 -15 -16 -16 -16 -16 -17 -17 -18 -19 -19 -19 -19 -20 -20 -19 -19 -19 -19 -20 -20
-17 -17 -16 -16 -16 -15 -15 -15 -15 -16 -15 -15 -15 -15 -15 -15 -15 -15 -15 -15 -15 -15 -15 -15 -15 -15 -15 -15 -15 -16 -16 -16 -17 -18 -18 -18 -18 -19 -19 -19 -20 -20 -20 -20 -20 -20 -21 -21 -21
-17 -16 -16 -16 -16 -15 -15 -16 -15 -16 -15 -15 -15 -14 -15 -15 -15 -15 -15 -15 -15 -15 -15 -15 -15 -15 -15 -16 -16 -16 -17 -17 -17 -18 -18 -18 -19 -19 -19 -20 -20 -20 -20 -20 -21 -21 -21 -21 -22
-17 -16 -16 -16 -16 -16 -15 -16 -16 -15 -15 -15 -14 -15 -15 -14 -15 -15 -15 -15 -15 -15 -15 -15 -15 -15 -16 -16 -16 -17 -17 -17 -17 -18 -18 -19 -19 -20 -20 -20 -20 -20 -21 -21 -21 -21 -22 -22 -22
-16 -16 -16 -16 -16 -16 -16 -16 -16 -15 -15 -15 -15 -14 -14 -14 -14 -15 -15 -15 -15 -15 -15 -15 -15 -16 -16 -16 -17 -17 -17 -18 -18 -19 -19 -19 -20 -20 -21 -21 -21 -21 -21 -22 -22 -22 -23 -23 -24
-15 -16 -16 -16 -16 -16 -15 -16 -16 -15 -15 -15 -15 -14 -14 -15 -15 -15 -15 -15 -15 -15 -16 -16 -16 -16 -17 -17 -17 -17 -18 -19 -19 -19 -19 -20 -20 -21 -21 -21 -22 -22 -22 -22 -22 -23 -23 -25 -26
-15 -15 -15 -15 -15 -15 -15 -15 -15 -15 -15 -15 -15 -15 -15 -15 -15 -15 -15 -15 -16 -16 -16 -16 -16 -16 -17 -17 -18 -18 -18 -19 -19 -19 -20 -21 -21 -21 -21 -22 -22 -22 -22 -23 -23 -23 -24 -26 -28
Height
5812 5816 5820 5823 5830 5830 5832 5839 5837 5830 5827 5829 5829 5828 5827 5828 5829 5832 5828 5828 5832 5832 5833 5831 5830 5832 5831 5830 5830 5829 5828 5828 5827 5827 5828 5829 5830 5831 5832 5832 5832 5831 5830 5829 5828 5827 5825 5823 5822
5808 5812 5816 5819 5824 5829 5836 5835 5828 5823 5824 5823 5823 5823 5822 5824 5822 5823 5824 5825 5826 5827 5826 5823 5825 5826 5825 5826 5826 5824 5822 5823 5823 5824 5826 5828 5828 5829 5829 5829 5829 5828 5827 5827 5826 5824 5822 5820 5819
5804 5809 5812 5815 5818 5825 5834 5821 5818 5817 5819 5818 5818 5818 5817 5817 5818 5820 5821 5823 5824 5822 5817 5816 5818 5820 5821 5822 5820 5819 5819 5820 5821 5821 5823 5825 5825 5827 5827 5826 5825 5825 5824 5822 5821 5820 5819 5818 5816
5802 5806 5809 5812 5817 5824 5823 5813 5813 5815 5814 5812 5812 5812 5814 5813 5814 5817 5819 5820 5820 5815 5812 5813 5809 5812 5816 5817 5816 5814 5816 5817 5818 5819 5822 5824 5825 5825 5825 5824 5823 5822 5820 5820 5818 5816 5815 5813 5812
5799 5803 5807 5810 5814 5820 5814 5815 5809 5814 5810 5808 5807 5808 5809 5809 5810 5814 5816 5816 5813 5810 5806 5807 5807 5808 5811 5812 5811 5813 5814 5814 5816 5818 5821 5823 5823 5823 5822 5821 5820 5819 5817 5816 5815 5813 5811 5810 5809
5797 5801 5805 5810 5816 5815 5810 5810 5810 5805 5807 5804 5805 5804 5805 5808 5809 5809 5812 5810 5810 5806 5798 5806 5807 5808 5807 5806 5807 5811 5813 5814 5815 5817 5820 5820 5820 5819 5818 5818 5816 5816 5815 5812 5811 5809 5807 5807 5805
5795 5799 5804 5812 5814 5811 5809 5808 5803 5806 5799 5801 5802 5801 5800 5802 5807 5809 5808 5808 5805 5800 5796 5801 5803 5802 5803 5803 5807 5810 5812 5814 5816 5817 5819 5818 5817 5817 5817 5814 5814 5812 5811 5809 5807 5805 5803 5801 5800
5792 5796 5801 5807 5811 5809 5805 5804 5805 5801 5798 5802 5802 5795 5796 5801 5800 5801 5803 5802 5806 5808 5791 5796 5800 5802 5803 5806 5809 5810 5812 5813 5815 5815 5815 5816 5817 5814 5813 5812 5811 5809 5806 5804 5803 5801 5800 5798 5795
5791 5795 5801 5807 5805 5803 5796 5799 5797 5795 5797 5800 5783 5795 5797 5797 5797 5798 5799 5801 5801 5797 5795 5798 5800 5800 5802 5803 5808 5809 5810 5811 5813 5813 5813 5812 5811 5811 5809 5807 5805 5804 5802 5800 5798 5796 5794 5791 5789
5790 5794 5803 5802 5798 5796 5798 5796 5796 5795 5796 5790 5792 5792 5792 5794 5795 5797 5797 5796 5797 5796 5796 5798 5801 5803 5804 5804 5806 5807 5808 5810 5810 5810 5810 5808 5806 5806 5803 5801 5799 5797 5796 5793 5791 5789 5788 5787 5785
5788 5791 5792 5788 5787 5797 5794 5794 5794 5791 5792 5790 5787 5788 5790 5792 5792 5794 5795 5797 5799 5800 5800 5801 5802 5802 5803 5803 5804 5806 5807 5807 5806 5806 5804 5801 5801 5800 5797 5795 5793 5791 5790 5787 5786 5784 5782 5781 5780
5785 5787 5790 5791 5791 5795 5795 5795 5791 5785 5780 5784 5791 5789 5792 5793 5794 5795 5797 5797 5798 5799 5799 5800 5801 5802 5802 5804 5805 5805 5804 5803 5803 5801 5797 5797 5796 5795 5793 5790 5788 5786 5784 5782 5781 5778 5777 5774 5772
5783 5786 5789 5789 5791 5793 5793 5795 5793 5792 5789 5792 5791 5792 5793 5794 5794 5796 5796 5797 5798 5799 5799 5800 5801 5801 5801 5801 5802 5801 5801 5800 5798 5796 5795 5794 5792 5789 5787 5786 5785 5780 5780 5777 5775 5771 5768 5765 5763
5783 5785 5786 5787 5788 5791 5795 5793 5793 5794 5793 5793 5792 5793 5794 5794 5795 5796 5796 5797 5798 5799 5800 5800 5800 5799 5800 5800 5799 5799 5798 5797 5796 5793 5790 5789 5787 5784 5782 5779 5776 5773 5770 5766 5766 5762 5758 5755 5753
5781 5783 5785 5786 5788 5791 5793 5793 5792 5794 5794 5794 5794 5795 5795 5796 5796 5797 5796 5797 5798 5799 5800 5799 5799 5799 5799 5798 5797 5796 5794 5794 5791 5789 5787 5784 5780 5778 5775 5771 5768 5763 5760 5758 5755 5751 5749 5745 5744
5782 5785 5787 5785 5789 5792 5794 5794 5791 5794 5794 5793 5794 5794 5796 5796 5796 5797 5797 5797 5798 5799 5800 5799 5798 5798 5797 5796 5795 5789 5788 5788 5785 5783 5780 5776 5773 5768 5765 5763 5762 5757 5754 5750 5746 5742 5739 5737 5733
5783 5786 5787 5787 5791 5793 5794 5793 5792 5793 5793 5792 5794 5795 5795 5796 5797 5797 5797 5798 5798 5798 5798 5797 5797 5796 5795 5794 5792 5790 5788 5785 5781 5777 5772 5768 5763 5758 5756 5754 5751 5747 5744 5740 5736 5732 5729 5726 5724
5785 5789 5788 5790 5789 5793 5796 5793 5793 5794 5795 5794 5794 5794 5794 5795 5795 5796 5797 5797 5797 5797 5797 5795 5794 5792 5791 5789 5787 5785 5781 5777 5773 5769 5764 5760 5756 5753 5750 5748 5744 5740 5735 5730 5726 5722 5718 5714 5710
5786 5789 5791 5791 5790 5792 5795 5793 5793 5793 5793 5793 5793 5794 5794 5794 5794 5794 5794 5794 5793 5792 5791 5790 5788 5787 5786 5784 5782 5778 5775 5771 5767 5763 5761 5758 5755 5750 5744 5737 5732 5728 5724 5718 5713 5709 5706 5701 5696
5787 5789 5790 5789 5789 5791 5793 5793 5791 5792 5792 5792 5792 5793 5793 5793 5793 5792 5792 5791 5790 5789 5788 5787 5785 5784 5782 5779 5776 5774 5769 5766 5763 5760 5756 5748 5742 5737 5732 5727 5722 5716 5711 5706 5701 5696 5693 5688 5682
5786 5789 5786 5790 5790 5791 5793 5792 5790 5791 5791 5792 5792 5792 5792 5792 5791 5790 5790 5789 5788 5786 5784 5783 5781 5779 5777 5774 5771 5768 5765 5762 5757 5752 5746 5741 5735 5729 5723 5718 5712 5707 5701 5695 5689 5683 5680 5673 5667
5785 5785 5785 5788 5789 5791 5790 5793 5788 5791 5791 5791 5791 5791 5790 5790 5789 5788 5787 5787 5785 5783 5781 5778 5776 5774 5772 5770 5766 5763 5759 5754 5748 5742 5736 5731 5725 5720 5714 5708 5701 5695 5688 5683 5677 5670 5664 5657 5650
5776 5783 5785 5787 5788 5790 5788 5791 5788 5788 5791 5790 5789 5788 5788 5787 5785 5784 5784 5783 5781 5779 5777 5775 5773 5771 5768 5765 5762 5757 5752 5746 5740 5734 5728 5723 5717 5710 5704 5697 5690 5683 5676 5669 5662 5655 5647 5638 5630
5781 5783 5783 5785 5788 5787 5788 5781 5783 5784 5786 5786 5786 5785 5784 5782 5781 5780 5779 5778 5777 5776 5774 5771 5769 5766 5763 5758 5754 5748 5742 5736 5730 5724 5719 5712 5706 5699 5693 5685 5677 5669 5661 5654 5645 5638 5630 5621 5611
5780 5782 5784 5786 5786 5785 5784 5784 5786 5786 5777 5780 5781 5780 5779 5778 5777 5776 5775 5774 5773 5772 5769 5767 5764 5760 5756 5751 5746 5739 5733 5727 5721 5715 5709 5703 5696 5688 5680 5672 5665 5656 5648 5641 5632 5622 5612 5600 5588
5776 5781 5782 5781 5783 5785 5780 5782 5785 5781 5778 5777 5776 5776 5775 5774 5774 5773 5772 5770 5769 5767 5764 5761 5757 5754 5749 5743 5737 5731 5725 5719 5713 5707 5699 5691 5683 5675 5668 5660 5652 5644 5635 5626 5615 5605 5592 5579 5565
5776 5775 5777 5777 5778 5778 5780 5780 5778 5776 5773 5773 5772 5772 5771 5771 5771 5769 5767 5766 5764 5761 5757 5753 5749 5745 5739 5734 5728 5722 5717 5710 5703 5695 5687 5679 5671 5662 5654 5646 5638 5630 5621 5610 5597 5585 5573 5559 5544
5770 5771 5774 5774 5773 5773 5777 5776 5777 5772 5770 5770 5769 5769 5769 5768 5767 5765 5763 5760 5757 5754 5750 5745 5740 5736 5731 5725 5719 5712 5706 5699 5691 5683 5675 5666 5658 5649 5641 5632 5623 5614 5604 5593 5581 5569 5553 5537 5520
5767 5767 5769 5770 5770 5770 5771 5774 5770 5769 5769 5768 5767 5767 5765 5764 5762 5760 5757 5754 5750 5745 5741 5736 5731 5726 5720 5714 5707 5700 5693 5686 5679 5671 5663 5654 5645 5637 5628 5619 5609 5599 5588 5576 5563 5548 5531 5514 5500
5762 5763 5764 5766 5767 5767 5767 5769 5767 5766 5765 5765 5765 5763 5760 5759 5756 5753 5751 5746 5742 5737 5732 5727 5722 5716 5709 5702 5695 5688 5681 5674 5666 5658 5650 5641 5632 5623 5614 5606 5596 5585 5572 5558 5545 5529 5513 5496 5482
Wind_Speed
31 28 29 29 29 29 25 17 30 31 34 30 32 34 39 36 39 38 41 35 35 35 38 38 36 31 20 19 22 22 18 18 15 12 13 15 12 9 8 7 8 10 12 14 16 17 18 20 21
28 27 26 28 27 17 12 18 32 33 23 32 33 33 34 37 36 36 35 37 34 35 43 44 39 33 19 21 21 18 17 14 11 10 13 14 12 11 10 10 12 13 15 18 19 20 20 20 21
26 24 25 25 23 16 12 20 39 34 31 35 32 32 30 31 33 36 38 37 34 38 47 48 48 29 22 20 20 15 14 13 11 11 14 15 14 13 10 13 14 17 18 19 20 21 21 22 21
23 23 25 22 15 12 20 27 31 25 30 33 30 26 24 31 31 35 36 36 38 39 44 41 35 25 20 22 20 14 12 12 11 11 14 15 13 11 14 16 18 20 20 22 22 21 23 23 24
24 22 21 17 15 16 25 19 10 23 21 32 30 24 31 29 30 28 33 33 38 39 52 49 21 17 18 20 18 10 10 10 9 10 12 13 13 15 17 18 20 23 24 25 24 22 26 26 28
23 22 18 13 13 21 18 22 24 25 28 12 24 25 24 28 28 23 27 22 31 30 37 26 21 25 23 20 12 8 8 8 7 8 11 13 16 18 20 23 24 27 29 28 27 26 27 28 28
24 18 16 10 15 19 17 21 20 25 21 29 17 22 23 20 21 18 24 24 16 17 26 15 17 22 16 12 6 7 7 8 7 9 14 16 20 21 24 26 30 30 32 31 31 29 28 27 24
24 20 15 15 13 21 21 23 28 30 31 26 25 27 23 22 7 8 8 18 28 21 9 18 15 18 9 8 7 6 8 8 11 15 18 21 23 25 28 32 36 34 33 31 31 30 29 31 28
23 17 10 11 21 13 9 19 23 29 32 24 6 27 17 14 6 5 6 9 16 26 11 8 9 5 6 2 4 7 9 12 15 16 18 20 24 29 31 35 38 38 36 35 33 29 29 32 31
20 15 7 22 25 16 18 13 16 25 18 22 23 23 7 6 5 6 6 6 7 7 6 5 3 4 2 4 7 9 12 13 15 18 22 25 28 30 33 36 37 39 36 38 36 35 35 33 34
19 18 18 24 13 19 2 2 4 9 9 13 5 9 7 3 6 4 6 4 6 4 5 5 4 4 5 7 9 11 12 15 18 22 25 27 29 30 31 34 40 40 35 40 39 35 36 33 36
21 23 19 28 24 17 9 10 9 16 16 11 8 6 2 2 2 3 1 2 1 3 4 4 6 8 9 9 11 13 16 19 24 25 28 32 28 31 31 33 33 39 38 36 32 33 36 38 43
21 21 20 21 19 10 12 8 8 7 4 2 4 4 1 2 2 2 1 0 2 4 6 9 10 9 10 11 14 17 22 23 25 28 29 25 22 28 31 35 42 22 34 36 38 42 45 43 44
16 18 14 12 13 13 10 6 4 5 4 3 0 2 1 2 1 0 1 1 3 6 8 8 8 9 13 16 17 20 21 20 26 28 24 29 29 34 36 37 37 43 44 44 46 48 49 46 44
18 11 14 23 15 9 5 7 5 8 4 2 2 0 2 3 3 4 6 7 6 7 7 7 9 12 15 18 21 22 21 23 26 41 38 38 42 40 45 44 43 44 44 48 49 48 49 49 50
17 11 10 4 11 10 9 12 4 8 7 6 4 2 1 2 3 6 6 6 6 6 8 9 12 15 16 17 18 29 24 41 42 38 39 40 40 37 32 33 35 42 44 43 44 46 48 47 47
15 9 12 10 11 9 10 16 6 5 4 4 5 4 3 4 5 6 6 7 8 9 10 11 16 18 17 17 21 25 31 35 38 41 44 46 46 45 42 38 38 39 41 41 42 44 46 47 47
12 9 7 8 12 12 9 16 10 7 9 10 8 7 6 8 8 9 10 11 11 12 13 17 17 15 15 22 28 32 34 37 38 40 44 46 44 42 42 42 41 44 46 49 51 53 54 54 56
4 7 7 12 7 12 10 11 8 8 8 9 9 8 10 12 11 10 11 12 14 16 18 19 18 21 25 30 31 32 31 32 36 39 42 42 41 42 44 47 50 52 52 55 55 55 55 57 58
8 9 12 9 8 10 10 10 7 7 10 11 12 11 11 11 11 11 13 15 16 18 21 22 23 25 28 26 26 28 30 32 34 36 38 43 46 49 50 50 51 53 54 55 56 58 58 58 59
7 9 12 6 7 11 11 14 9 9 10 9 9 9 11 11 14 16 17 17 18 21 23 25 24 25 22 22 25 28 31 35 38 40 42 44 46 48 51 53 54 54 55 55 56 56 57 59 61
9 14 7 11 7 10 11 12 14 10 11 10 11 14 16 17 18 20 21 20 21 24 23 20 17 18 21 24 28 31 35 38 41 45 47 50 51 52 54 56 57 55 54 55 56 57 60 65 69
18 6 11 11 7 18 8 15 31 8 16 16 16 18 20 21 22 23 22 23 24 19 16 16 18 21 24 27 30 33 37 41 44 46 48 51 53 55 57 58 58 57 56 58 59 62 67 72 76
10 13 9 13 9 16 15 17 18 16 21 26 23 23 23 24 24 25 24 24 19 15 16 19 21 23 27 32 35 38 42 46 49 50 51 54 57 58 58 59 59 59 60 62 66 70 73 78 82
14 11 7 10 16 16 17 22 18 19 17 28 26 28 27 25 25 25 22 17 15 16 20 23 25 28 32 36 39 42 46 50 53 53 56 58 59 60 61 62 62 63 64 68 72 77 80 84 87
14 11 13 15 11 14 20 22 16 24 32 30 27 27 24 23 22 17 17 17 18 22 25 28 31 34 36 40 42 45 49 52 55 55 58 60 63 62 62 64 64 65 69 73 78 81 84 88 95
15 19 21 21 21 21 20 18 22 21 25 26 23 18 17 14 15 16 18 21 24 28 32 35 38 40 42 45 48 50 51 54 57 58 60 62 63 63 65 66 66 69 73 78 81 83 88 96 99
21 20 18 20 23 21 7 14 13 18 13 13 11 12 13 16 19 22 25 27 32 35 38 41 44 45 48 51 53 56 57 58 58 59 62 64 65 65 67 67 70 74 77 80 81 88 97 99 88
20 21 19 20 19 15 13 6 18 12 11 11 13 15 19 22 24 27 30 34 37 40 44 47 49 51 54 56 57 59 61 59 61 61 64 65 65 67 66 69 73 77 79 81 88 96 97 87 81
19 18 18 18 18 15 13 12 13 15 16 17 19 22 24 26 30 32 34 38 42 45 48 50 53 55 57 59 60 62 61 61 62 63 65 66 66 66 68 71 76 77 80 86 91 98 91 79 72
Wind_Direction
232 231 228 230 234 239 241 248 251 250 257 257 258 258 257 256 265 248 252 250 254 248 248 250 251 254 253 253 263 275 282 282 280 270 226 206 207 217 239 266 286 308 312 311 314 316 320 321 320
230 230 230 232 235 235 269 251 250 252 260 258 251 261 256 249 256 259 250 249 255 251 251 246 244 248 241 255 266 265 267 267 264 256 221 211 219 231 247 272 286 296 302 310 311 312 312 317 321
224 222 225 229 232 229 236 248 255 261 251 258 250 255 248 250 255 254 252 250 254 257 264 263 248 227 231 247 253 252 258 262 252 232 216 217 224 238 263 278 288 294 302 304 306 311 314 320 321
215 218 222 228 222 249 225 249 260 247 254 248 244 245 256 254 251 253 249 254 253 260 259 253 223 217 227 254 249 238 246 248 233 220 218 226 236 255 273 282 289 294 300 303 307 313 318 316 319
206 212 219 225 225 231 240 246 207 268 259 253 243 237 252 248 261 259 254 253 245 259 251 245 214 221 224 234 247 236 246 240 218 213 224 237 253 263 274 281 286 291 297 299 302 310 317 317 315
194 204 211 223 252 244 250 249 249 225 248 217 252 242 270 250 257 258 241 250 249 250 206 205 201 213 222 246 222 237 252 247 229 233 243 251 261 269 274 280 286 291 295 297 299 306 315 313 311
193 197 195 217 229 252 246 243 258 247 247 258 277 255 254 258 253 238 237 233 181 233 199 199 220 238 243 237 236 247 272 268 263 262 260 264 268 277 281 286 289 291 294 297 305 299 304 305 301
194 195 207 230 225 242 230 215 244 264 258 258 274 281 278 244 223 185 209 229 214 177 201 190 213 244 250 257 260 279 279 280 274 271 281 293 292 293 294 297 297 295 292 293 299 299 301 299 300
194 194 200 222 238 245 201 258 264 265 260 259 206 282 281 230 211 234 236 222 232 234 233 207 221 257 284 233 266 280 281 283 298 304 303 301 307 304 302 305 303 297 293 292 299 295 296 296 299
190 171 203 219 222 206 238 281 267 270 277 250 275 275 241 197 210 203 200 204 229 259 276 291 276 280 267 247 256 283 292 296 303 308 307 310 307 309 309 306 306 298 291 291 292 293 296 297 296
186 162 209 204 196 239 47 347 70 219 248 263 266 224 178 182 170 180 189 217 221 228 242 260 275 264 267 272 276 281 297 307 307 301 303 301 303 302 303 302 303 303 294 290 293 296 295 296 292
184 204 199 212 238 236 140 203 214 257 195 111 92 81 108 142 182 209 222 53 120 198 238 250 249 248 258 277 294 303 310 308 310 308 304 302 304 304 298 299 306 301 293 289 288 302 294 292 296
188 206 221 226 239 205 184 154 212 312 23 182 120 119 130 164 215 235 215 288 284 277 262 256 261 283 295 305 309 313 314 312 309 305 299 301 302 324 297 287 299 303 302 295 281 292 298 283 288
182 212 199 186 186 152 157 200 195 213 246 252 140 10 327 167 178 4 106 173 229 254 263 281 291 296 302 305 314 311 308 309 317 308 306 319 318 319 315 311 307 305 303 298 288 285 284 278 279
163 172 212 162 157 164 192 224 238 188 183 240 255 223 266 207 219 200 195 213 237 264 286 294 294 295 309 312 311 312 308 290 298 312 315 314 310 313 310 308 305 302 295 291 286 285 284 290 285
154 162 179 120 156 183 142 259 195 188 216 214 229 217 239 257 268 238 236 252 266 285 303 308 304 303 302 302 310 296 291 304 314 314 321 322 318 316 307 296 280 285 289 289 289 289 289 289 288
169 160 198 185 188 173 123 244 183 197 237 257 286 295 288 278 257 246 269 280 291 299 303 297 288 295 299 307 298 296 302 305 308 314 319 321 320 318 312 308 304 300 299 300 297 293 290 288 283
204 196 188 198 220 188 155 222 201 236 255 278 282 290 299 312 280 257 252 256 262 272 281 286 296 292 293 299 309 309 312 310 310 314 320 320 318 316 312 307 301 298 297 298 300 300 299 297 294
154 158 170 200 224 177 197 217 215 237 242 270 278 272 266 282 278 273 275 283 290 293 295 290 289 292 298 308 310 313 314 319 323 321 312 306 306 308 312 312 310 307 305 303 301 299 297 295 294
171 175 185 232 203 174 197 219 231 242 263 274 264 271 280 282 284 281 281 288 293 294 292 292 293 292 299 304 310 312 320 320 315 312 315 321 322 320 317 312 307 305 302 299 297 296 296 295 295
198 202 201 219 209 182 216 242 244 253 256 270 272 267 268 271 274 277 281 280 281 289 292 293 291 290 299 307 310 313 315 313 313 316 317 316 315 314 313 310 308 305 301 299 299 298 298 299 299
204 204 188 179 248 229 228 243 211 238 235 243 262 268 272 272 271 271 270 271 279 283 285 288 294 300 304 309 311 312 310 313 316 317 316 314 312 310 311 311 310 308 306 303 302 302 302 303 304
273 169 235 206 174 222 272 252 282 194 260 258 258 262 264 265 266 265 268 274 276 275 282 291 300 303 302 303 305 308 311 315 317 315 314 313 311 310 310 310 310 308 306 304 304 304 306 306 306
254 258 253 215 235 252 240 240 264 275 259 260 262 261 261 263 263 265 270 271 268 278 290 300 302 302 304 306 308 309 312 313 314 313 313 315 313 310 309 311 311 309 307 307 308 308 308 308 307
236 236 236 241 245 272 253 249 255 264 277 262 262 268 266 262 262 267 267 263 274 286 296 299 303 305 303 301 304 308 308 308 309 312 313 312 312 312 312 313 311 310 311 311 312 312 311 310 309
227 217 238 278 248 247 272 271 270 254 264 266 271 266 266 264 265 263 266 274 284 292 298 301 303 303 302 303 304 304 304 306 308 310 310 312 313 312 312 312 311 312 314 315 315 313 312 312 313
248 232 233 237 255 262 252 260 284 268 265 265 271 265 259 258 266 277 285 287 289 295 299 301 303 304 304 303 302 302 303 305 308 311 313 312 313 312 313 312 313 316 318 317 317 316 316 316 315
242 248 247 250 260 274 276 254 244 265 263 261 260 260 265 274 284 286 288 292 295 297 299 300 302 303 303 302 301 301 303 305 311 312 313 314 313 312 313 314 317 318 319 319 319 319 319 318 315
243 249 246 253 257 258 255 222 252 256 262 268 273 276 283 288 290 291 291 293 295 297 298 299 301 302 302 302 304 306 305 308 310 312 314 313 313 313 314 317 319 321 321 322 323 323 321 317 314
252 247 249 243 246 242 240 232 258 270 276 276 281 285 288 289 289 290 292 294 295 295 297 299 301 301 302 305 306 307 308 307 310 312 313 312 312 313 316 318 321 321 323 324 323 325 322 316 314